This is the latest recevied weather packets stored in our database for station/object KB0Y. If no packets are shown the sender has not sent any weather packets the latest 10 day(s).
| Time | Temp. | Humidity | Pressure | Rain* | Wind** | Luminosity | Snow |
|---|---|---|---|---|---|---|---|
| 1778107713 | 30.56° C | 60% | 1018.3 hPa | 0 mm | - | 302 W/m² | - |
| 1778107410 | 30.56° C | 60% | 1017.9 hPa | 0 mm | - | 319 W/m² | - |
| 1778107107 | 30.56° C | 59% | 1017.9 hPa | 0 mm | - | 340 W/m² | - |
| 1778106801 | 30.56° C | 59% | 1017.9 hPa | 0 mm | - | 355 W/m² | - |
| 1778106499 | 31.11° C | 59% | 1017.9 hPa | 0 mm | - | 383 W/m² | - |
| 1778106194 | 31.11° C | 58% | 1017.9 hPa | 0 mm | - | 401 W/m² | - |
| 1778105887 | 31.11° C | 58% | 1018.3 hPa | 0 mm | - | 413 W/m² | - |
| 1778105584 | 31.11° C | 58% | 1018.3 hPa | 0 mm | - | 421 W/m² | - |
| 1778105281 | 31.11° C | 56% | 1018.3 hPa | 0 mm | - | 434 W/m² | - |
| 1778104976 | 31.11° C | 57% | 1018.3 hPa | 0 mm | - | 440 W/m² | - |
| 1778104673 | 31.11° C | 58% | 1018.6 hPa | 0 mm | - | 449 W/m² | - |
| 1778104369 | 31.11° C | 56% | 1018.6 hPa | 0 mm | - | 455 W/m² | - |
| 1778104065 | 31.11° C | 56% | 1018.3 hPa | 0 mm | - | 469 W/m² | - |
| 1778103762 | 31.11° C | 57% | 1018.6 hPa | 0 mm | - | 471 W/m² | - |
| 1778103461 | 31.11° C | 56% | 1018.3 hPa | 0 mm | - | 479 W/m² | - |
| 1778103158 | 31.67° C | 55% | 1018.9 hPa | 0 mm | - | 496 W/m² | - |
| 1778102855 | 31.67° C | 53% | 1018.9 hPa | 0 mm | - | 501 W/m² | - |
| 1778102551 | 31.67° C | 52% | 1018.6 hPa | 0 mm | - | 508 W/m² | - |
| 1778102246 | 31.67° C | 54% | 1018.9 hPa | 0 mm | - | 510 W/m² | - |
| 1778101942 | 31.67° C | 54% | 1018.9 hPa | 0 mm | - | 510 W/m² | - |
| 1778101640 | 31.67° C | 53% | 1018.9 hPa | 0 mm | - | 523 W/m² | - |
| 1778101336 | 31.67° C | 53% | 1018.6 hPa | 0 mm | - | 527 W/m² | - |
| 1778101034 | 31.67° C | 55% | 1018.9 hPa | 0 mm | - | 536 W/m² | - |
| 1778100728 | 31.67° C | 55% | 1018.6 hPa | 0 mm | - | 542 W/m² | - |
| 1778100426 | 31.67° C | 54% | 1018.9 hPa | 0 mm | - | 539 W/m² | - |
* Rain latest hour (hover to see other rain measurements)
** Current wind speed in m/s (hover to see current wind gust speed)